• Em Portugal
  • Lista de países
  • Para 7 dias
  • Temperatura da água
  • Mapas de satélite
  • Mapa do tempo
  • Widgets de tempo
  • user-avatar
    Iniciar Sessão

    Previsão horária em Klaipėda

    Hoje, 24 Fevereiro, Sábado

    Tempo Temperatura Precipitação Vento Pressão Humidade
    00:00 -13°C° 0,1 mm 8 m/s 768 mmHg 90%
    01:00 -15°C° 0 mm 8 m/s 769 mmHg 88%
    02:00 -15°C° 0 mm 8 m/s 769 mmHg 88%
    03:00 -16°C° 0 mm 8 m/s 770 mmHg 87%
    04:00 -16°C° 0 mm 8 m/s 770 mmHg 87%
    05:00 -17°C° 0 mm 7 m/s 771 mmHg 87%
    06:00 -18°C° 0 mm 7 m/s 772 mmHg 88%
    07:00 -18°C° 0 mm 7 m/s 773 mmHg 88%
    08:00 -16°C° 0 mm 6 m/s 773 mmHg 85%
    09:00 -16°C° 0 mm 6 m/s 774 mmHg 82%
    10:00 -15°C° 0 mm 6 m/s 774 mmHg 79%
    11:00 -14°C° 0 mm 6 m/s 774 mmHg 77%
    12:00 -14°C° 0 mm 6 m/s 774 mmHg 76%
    13:00 -12°C° 0 mm 6 m/s 774 mmHg 74%
    14:00 -12°C° 0 mm 6 m/s 774 mmHg 76%
    15:00 -12°C° 0 mm 5 m/s 774 mmHg 77%
    16:00 -12°C° 0 mm 5 m/s 774 mmHg 79%
    17:00 -13°C° 0 mm 5 m/s 775 mmHg 82%
    18:00 -14°C° 0 mm 5 m/s 775 mmHg 86%
    19:00 -15°C° 0 mm 5 m/s 775 mmHg 89%
    20:00 -16°C° 0 mm 4 m/s 775 mmHg 90%
    21:00 -16°C° 0 mm 4 m/s 775 mmHg 92%
    22:00 -16°C° 0 mm 4 m/s 775 mmHg 93%
    23:00 -17°C° 0 mm 4 m/s 775 mmHg 93%

    Amanhã, 25 Fevereiro, Domingo

    Tempo Temperatura Precipitação Vento Pressão Humidade
    00:00 -17°C° 0 mm 4 m/s 775 mmHg 94%
    01:00 -16°C° 0 mm 3 m/s 775 mmHg 94%
    02:00 -17°C° 0 mm 4 m/s 775 mmHg 94%
    03:00 -18°C° 0 mm 4 m/s 775 mmHg 94%
    04:00 -18°C° 0 mm 4 m/s 775 mmHg 94%
    05:00 -18°C° 0 mm 4 m/s 775 mmHg 94%
    06:00 -18°C° 0 mm 4 m/s 775 mmHg 94%
    07:00 -18°C° 0 mm 4 m/s 775 mmHg 93%
    08:00 -18°C° 0 mm 5 m/s 775 mmHg 90%
    09:00 -18°C° 0 mm 5 m/s 775 mmHg 86%
    10:00 -17°C° 0 mm 5 m/s 775 mmHg 82%
    11:00 -15°C° 0 mm 5 m/s 775 mmHg 81%
    12:00 -14°C° 0 mm 5 m/s 775 mmHg 79%
    13:00 -14°C° 0 mm 4 m/s 775 mmHg 77%
    14:00 -14°C° 0 mm 4 m/s 775 mmHg 78%
    15:00 -14°C° 0 mm 4 m/s 775 mmHg 79%
    16:00 -14°C° 0 mm 5 m/s 774 mmHg 81%
    17:00 -14°C° 0 mm 5 m/s 774 mmHg 83%
    18:00 -15°C° 0 mm 5 m/s 774 mmHg 85%
    19:00 -17°C° 0 mm 5 m/s 775 mmHg 88%
    20:00 -16°C° 0 mm 4 m/s 775 mmHg 89%
    21:00 -16°C° 0 mm 4 m/s 775 mmHg 91%
    22:00 -17°C° 0 mm 4 m/s 775 mmHg 92%
    23:00 -17°C° 0 mm 4 m/s 775 mmHg 93%

    Depois de amanhã, 26 Fevereiro, Segunda-feira

    Tempo Temperatura Precipitação Vento Pressão Humidade
    00:00 -16°C° 0 mm 3 m/s 774 mmHg 93%
    01:00 -16°C° 0 mm 3 m/s 774 mmHg 93%
    02:00 -15°C° 0 mm 2 m/s 774 mmHg 94%
    03:00 -15°C° 0 mm 2 m/s 774 mmHg 94%
    04:00 -15°C° 0 mm 2 m/s 774 mmHg 94%
    05:00 -15°C° 0 mm 2 m/s 773 mmHg 95%
    06:00 -15°C° 0 mm 2 m/s 773 mmHg 95%
    07:00 -15°C° 0 mm 2 m/s 773 mmHg 95%
    08:00 -13°C° 0 mm 2 m/s 773 mmHg 91%
    09:00 -13°C° 0 mm 3 m/s 773 mmHg 87%
    10:00 -10°C° 0 mm 3 m/s 773 mmHg 83%
    11:00 -10°C° 0 mm 3 m/s 773 mmHg 79%
    12:00 -9°C° 0 mm 3 m/s 772 mmHg 75%
    13:00 -8°C° 0 mm 3 m/s 772 mmHg 71%
    14:00 -9°C° 0,1 mm 3 m/s 772 mmHg 74%
    15:00 -9°C° 0,1 mm 3 m/s 771 mmHg 76%
    16:00 -9°C° 0,1 mm 3 m/s 771 mmHg 78%
    17:00 -10°C° 0 mm 3 m/s 771 mmHg 81%
    18:00 -12°C° 0 mm 3 m/s 771 mmHg 84%
    19:00 -13°C° 0 mm 3 m/s 770 mmHg 88%
    20:00 -13°C° 0 mm 3 m/s 770 mmHg 89%
    21:00 -13°C° 0 mm 3 m/s 770 mmHg 90%
    22:00 -14°C° 0 mm 4 m/s 770 mmHg 91%
    23:00 -14°C° 0,1 mm 4 m/s 770 mmHg 92%

    27 Fevereiro, Terça-feira

    Tempo Temperatura Precipitação Vento Pressão Humidade
    00:00 -14°C° 0,1 mm 4 m/s 770 mmHg 92%
    01:00 -15°C° 0,1 mm 4 m/s 770 mmHg 92%
    02:00 -15°C° 0,1 mm 5 m/s 770 mmHg 91%
    03:00 -15°C° 0,1 mm 5 m/s 770 mmHg 90%
    04:00 -17°C° 0,1 mm 6 m/s 770 mmHg 89%
    05:00 -19°C° 0,1 mm 7 m/s 770 mmHg 88%
    06:00 -19°C° 0,1 mm 8 m/s 771 mmHg 86%
    07:00 -21°C° 0,1 mm 8 m/s 771 mmHg 85%
    08:00 -21°C° 0,1 mm 8 m/s 771 mmHg 84%
    09:00 -21°C° 0,1 mm 8 m/s 772 mmHg 83%
    10:00 -21°C° 0,1 mm 8 m/s 772 mmHg 82%
    11:00 -21°C° 0 mm 8 m/s 773 mmHg 81%
    12:00 -19°C° 0 mm 8 m/s 773 mmHg 79%
    13:00 -19°C° 0 mm 7 m/s 773 mmHg 78%
    14:00 -19°C° 0 mm 7 m/s 773 mmHg 79%
    15:00 -19°C° 0 mm 7 m/s 773 mmHg 80%
    16:00 -19°C° 0 mm 7 m/s 774 mmHg 80%
    17:00 -21°C° 0 mm 8 m/s 774 mmHg 82%
    18:00 -21°C° 0 mm 8 m/s 774 mmHg 83%
    19:00 -22°C° 0 mm 8 m/s 775 mmHg 85%
    20:00 -22°C° 0 mm 8 m/s 775 mmHg 85%
    21:00 -23°C° 0 mm 8 m/s 775 mmHg 86%
    22:00 -23°C° 0 mm 8 m/s 775 mmHg 86%
    23:00 -23°C° 0 mm 8 m/s 775 mmHg 87%

    28 Fevereiro, Quarta-feira

    Tempo Temperatura Precipitação Vento Pressão Humidade
    00:00 -24°C° 0 mm 8 m/s 775 mmHg 87%
    01:00 -24°C° 0 mm 7 m/s 775 mmHg 88%
    02:00 -25°C° 0 mm 7 m/s 775 mmHg 88%
    03:00 -26°C° 0 mm 8 m/s 775 mmHg 88%
    04:00 -26°C° 0 mm 8 m/s 775 mmHg 88%
    05:00 -26°C° 0 mm 8 m/s 775 mmHg 88%
    06:00 -26°C° 0 mm 8 m/s 775 mmHg 88%
    07:00 -26°C° 0 mm 8 m/s 775 mmHg 88%
    08:00 -24°C° 0 mm 8 m/s 775 mmHg 86%
    09:00 -23°C° 0 mm 7 m/s 775 mmHg 84%
    10:00 -21°C° 0 mm 7 m/s 775 mmHg 82%
    11:00 -20°C° 0 mm 7 m/s 775 mmHg 81%
    12:00 -19°C° 0 mm 7 m/s 774 mmHg 80%
    13:00 -18°C° 0 mm 7 m/s 774 mmHg 78%
    14:00 -18°C° 0 mm 7 m/s 774 mmHg 79%
    15:00 -18°C° 0 mm 7 m/s 773 mmHg 80%
    16:00 -18°C° 0 mm 8 m/s 773 mmHg 80%
    17:00 -18°C° 0 mm 8 m/s 773 mmHg 81%
    18:00 -18°C° 0 mm 8 m/s 773 mmHg 82%
    19:00 -19°C° 0 mm 8 m/s 772 mmHg 84%
    20:00 -19°C° 0 mm 7 m/s 772 mmHg 84%
    21:00 -19°C° 0 mm 7 m/s 772 mmHg 85%
    22:00 -19°C° 0 mm 7 m/s 772 mmHg 85%
    23:00 -19°C° 0,1 mm 7 m/s 771 mmHg 86%

    1 Março, Quinta-feira

    Tempo Temperatura Precipitação Vento Pressão Humidade
    00:00 -20°C° 0,1 mm 6 m/s 771 mmHg 87%
    01:00 -20°C° 0,1 mm 6 m/s 771 mmHg 88%
    02:00 -20°C° 0,1 mm 6 m/s 770 mmHg 89%
    03:00 -19°C° 0,1 mm 5 m/s 770 mmHg 89%
    04:00 -19°C° 0,1 mm 5 m/s 769 mmHg 90%
    05:00 -19°C° 0,1 mm 5 m/s 769 mmHg 90%
    06:00 -19°C° 0,1 mm 5 m/s 769 mmHg 90%
    07:00 -20°C° 0,1 mm 5 m/s 768 mmHg 90%
    08:00 -18°C° 0,1 mm 4 m/s 768 mmHg 88%
    09:00 -17°C° 0,1 mm 4 m/s 768 mmHg 85%
    10:00 -17°C° 0,1 mm 4 m/s 767 mmHg 83%
    11:00 -16°C° 0 mm 4 m/s 767 mmHg 81%
    12:00 -14°C° 0 mm 3 m/s 767 mmHg 78%
    13:00 -14°C° 0 mm 3 m/s 766 mmHg 76%
    14:00 -14°C° 0 mm 3 m/s 766 mmHg 77%
    15:00 -14°C° 0 mm 3 m/s 765 mmHg 78%
    16:00 -13°C° 0 mm 2 m/s 765 mmHg 79%
    17:00 -14°C° 0 mm 2 m/s 765 mmHg 83%
    18:00 -15°C° 0 mm 2 m/s 764 mmHg 86%
    19:00 -16°C° 0 mm 3 m/s 764 mmHg 90%
    20:00 -16°C° 0 mm 2 m/s 764 mmHg 90%
    21:00 -17°C° 0 mm 2 m/s 764 mmHg 91%
    22:00 -17°C° 0 mm 2 m/s 764 mmHg 92%
    23:00 -18°C° 0 mm 2 m/s 763 mmHg 92%
    Mostrar mais